Regional Weather Roundup
Issued by NWS

Home | Current Version | Previous Version | Graphics & Text | Print | Product List | Glossary On
Versions: 1 2 3 4 5 6 7 8 9 10 11 12 13 14 15 16 17 18 19 20 21 22 23 24 25 26 27 28 29 30 31 32 33 34 35 36 37 38 39 40 41 42 43 44 45 46 47 48 49 50
000
ASUS45 KTFX 290510
RWRMT
MONTANA REGIONAL WEATHER ROUNDUP
NATIONAL WEATHER SERVICE GREAT FALLS MT
1100 PM MDT THU MAY 28 2015

NOTE: "FAIR" INDICATES FEW OR NO CLOUDS BELOW 12000 FEET WITH NO
SIGNIFICANT WEATHER AND/OR OBSTRUCTIONS TO VISIBILITY.

MTZ001>007-043-290600-
WEST OF THE DIVIDE

CITY           SKY/WX    TMP DP  RH WIND       PRES   REMARKS
KALISPELL      PTCLDY    54  42  64 CALM      30.21R
MISSOULA       MOCLDY    58  45  62 SE13      30.22R
BUTTE          MOCLDY    50  42  74 N3        30.30R
MULLAN PASS    CLOUDY    47  42  83 SE12G18   30.25S
DEER LODGE       N/A     48  43  81 N8G16     30.34S
EUREKA           N/A     55  50  82 CALM      30.21R
HAMILTON         N/A     55  48  76 S2        30.21R
LIBBY            N/A     54  52  94 CALM      30.21S
RONAN            N/A     58  51  77 SE5       30.22S
THOMPSON FALLS   N/A     57  53  86 SW2       30.21R
$$

MTZ008-052>055-290600-
SOUTHWEST MONTANA

CITY           SKY/WX    TMP DP  RH WIND       PRES   REMARKS
BOZEMAN        CLOUDY    50  48  93 CALM      30.27R
DILLON         CLOUDY    50  45  83 NE16      30.26R
W YELLOWSTONE  MOCLDY    45  39  81 N7        30.28S
THREE FORKS      N/A     53  14  21 N7        30.24R
TWIN BRIDGES     N/A     50  44  79 N13       30.22R
$$

MTZ009-010-012-014-046-048-049-054-290600-
EAST SLOPES AND CENTRAL MONTANA

CITY           SKY/WX    TMP DP  RH WIND       PRES   REMARKS
CUT BANK       CLOUDY    45  41  86 NE6       30.34R
GREAT FALLS    LGT RAIN  45  44  97 N10       30.33R FOG
MALMSTROM AFB  LGT RAIN  46  46  99 N8        30.34R FOG
HELENA         CLOUDY    50  43  77 NW10      30.31R
CONRAD           N/A     46  45  97 NW3       30.32S
$$

MTZ011-013-016-021-045-047-050-051-290600-
NORTH CENTRAL MONTANA

CITY           SKY/WX    TMP DP  RH WIND       PRES   REMARKS
HAVRE          CLEAR     48  42  80 SE3       30.29R
LEWISTOWN      LGT RAIN  49  46  90 N8        30.27R
N BAR RANCH    CLOUDY    48  46  93 NW9       30.28R FOG
CHINOOK          N/A     45  43  93 CALM      30.29S
FORT BENTON      N/A     50  43  76 NW6       30.33R
$$

MTZ017>020-022>027-061-062-290600-
NORTHEAST MONTANA

CITY           SKY/WX    TMP DP  RH WIND       PRES   REMARKS
GLASGOW        PTCLDY    48  40  73 NW8       30.22R
JORDAN           N/A     52  48  86 N13       30.21R
SIDNEY         CLOUDY    52  39  62 N21G29    30.13R
WOLF POINT     PTCLDY    50  41  71 NE6       30.20R
MALTA            N/A     47  39  73 N2        30.21R
PLENTYWOOD       N/A     45  36  70 N16G23    30.18R
POPLAR           N/A     48  39  71 N9        30.20R
$$

MTZ028>42-056>058-290600-
SOUTHCENTRAL AND SOUTHEAST MONTANA

CITY           SKY/WX    TMP DP  RH WIND       PRES   REMARKS
BAKER          CLOUDY    56  51  84 N18G26    30.08R
BILLINGS       LGT RAIN  53  50  89 N9        30.21R
LIVINGSTON     CLOUDY    50  46  86 W3        30.26R
MILES CITY     CLOUDY    56  49  77 N22G30    30.13R
BIG TIMBER       N/A     52  48  87 SW6       30.26S
EKALAKA          N/A     53  50  90 NW9       30.06R
LAUREL           N/A     53  48  83 NW2       30.18R
ROUNDUP          N/A     52  46  79 N14       30.13R
$$

REGIONAL REPORTS...DAKOTAS

CITY           SKY/WX    TMP DP  RH WIND       PRES   REMARKS
WILLISTON      CLOUDY    51  42  71 N21G35    30.11S
MINOT          LGT RAIN  52  45  77 N20G35    30.04R
DICKINSON      CLOUDY    57  50  77 N20       30.01R
BEACH          CLOUDY    54  50  87 N21G30    30.09R
CROSBY         CLOUDY    46  39  76 N17       30.16R
WATFORD CITY   CLOUDY    50  46  87 N17G28    30.08R
BISMARCK       CLOUDY    65  55  70 N9        29.94R
GRAND FORKS    CLOUDY    62  59  90 N17       29.86S
FARGO          LGT RAIN  63  61  93 S14       29.84S
BUFFALO SD       N/A     56  54  93 W9        29.97R
RAPID CITY     CLOUDY    56  49  77 NW13      30.00R
$$

REGIONAL REPORTS...WYOMING/IDAHO/WASHINGTON

CITY           SKY/WX    TMP DP  RH WIND       PRES   REMARKS
GILLETTE       CLOUDY    54  47  77 NW15      30.12R
SHERIDAN       LGT RAIN  52  50  93 NW13      30.19R
BUFFALO WY     CLOUDY    51  46  83 NW23G37   30.18R
CODY           CLOUDY    48  46  93 NE6       30.23R
YELLOWSTONE LA   N/A     40  37  89 CALM      30.32R
IDAHO FALLS    CLEAR     49  46  90 CALM      30.21R
SALMON         PTCLDY    52  45  76 SE3       30.20R
BOISE          CLEAR     70  43  37 CALM      30.06R
SPOKANE        MOCLDY    64  49  57 NE10      30.10R THUNDER
$$

REGIONAL REPORTS...ALBERTA

CITY           SKY/WX    TMP DP  RH WIND       PRES   REMARKS
EDMONTON       CLEAR     41  25  52 NE6       30.31S
CALGARY        MOCLDY    50  41  71 S8        30.30S
LETHBRIDGE     CLEAR     43  41  93 S7        30.32S
MEDICINE HAT   CLEAR     46  34  61 NE7       30.30R
$$

REGIONAL REPORTS...SASKATCHEWAN

CITY           SKY/WX    TMP DP  RH WIND       PRES   REMARKS
SWIFT CURRENT  CLEAR     39  28  65 NE12      30.27R WCI  32
REGINA         CLEAR     43  32  65 N14G21    30.24R
SASKATOON      PTCLDY    37  28  70 NE7       30.33R
$$



USA.gov is the U.S. government's official web portal to all federal, state and local government web resources and services.